Location: Coopersdale
(40.3556°N, 78.9372°W)
Time: 02:31:58
(UTC+00:00)

Tiros 1 despin weight - Pass Details

Date: 21 January 2021
Orbit: 593 x 642 km, 48.2° (Epoch: 02 March)

Event Time Altitude Azimuth Distance (km) Brightness Sun altitude
Rises 00:01:39 0° 291° (WNW) 2,853 ? -19.2°
Reaches altitude 10° 00:04:12 10° 302° (WNW) 1,942 ? -19.6°
Maximum altitude 00:08:07 30° 4° (N) 1,089 ? -20.4°
Enters shadow 00:08:36 29° 17° (NNE) 1,106 ? -20.5°
Drops below altitude 10° 00:12:01 10° 66° (ENE) 1,926 - -21.1°
Sets 00:14:31 0° 78° (ENE) 2,825 - -21.6°
